This demonstration page uses our WeatherBlox Daily Observations layout. Learn more.

Left ArrowRight Arrow

39.01783, -85.05884

Hourly Observations for August 20, 2016

Temp ( °F °C ) Dew Point ( °F °C ) Humidity (%) Winds ( mph kmh ) Pressure ( in mb ) Visibility ( mi km ) Precip ( " mm )
12:52 am 00:52 Clear with Mist and Fog 73 22.8 71 21.7 94 94 SSW 6 9 29.91 1013 6 10 0.00 0.00
1:52 am 01:52 Clear with Mist and Fog 72 22.2 71 21.7 97 97 SSW 7 11 29.90 1013 6 10 0.00 0.00
2:52 am 02:52 Clear 72 22.2 71 21.7 97 97 SSW 5 7 29.90 1012 7 11 0.00 0.00
3:52 am 03:52 Clear with Mist and Fog 70 21.1 70 21.1 100 100 S 5 7 29.89 1012 6 10 0.00 0.00
4:52 am 04:52 Clear with Mist and Fog 70 21.1 70 21.1 100 100 SSE 3 6 29.88 1012 5 8 0.00 0.00
5:52 am 05:52 Mostly Clear 70 21.1 70 21.1 100 100 S 6 9 29.87 1011 7 11 0.00 0.00
6:52 am 06:52 Partly Cloudy 69 20.6 69 20.6 100 100 S 6 9 29.87 1011 10 16 0.00 0.00
7:52 am 07:52 Partly Cloudy 71 21.7 71 21.7 100 100 S 6 9 29.85 1011 10 16 0.00 0.00
8:20 am 08:20 Mostly Cloudy 73 23 72 22 94 94 S 7 11 29.85 1011 9 14 0.00 0.00
8:52 am 08:52 Cloudy 72 22.2 72 22.2 100 100 S 7 11 29.85 1011 10 16 0.00 0.00
9:52 am 09:52 Mostly Cloudy 76 24.4 72 22.2 88 88 S 9 15 29.83 1010 10 16 0.00 0.00
10:27 am 10:27 Cloudy 77 25 72 22 83 83 S 14 22 29.83 1010 10 16 0.00 0.00
10:52 am 10:52 Cloudy 77 25 71 21.7 82 82 S 13 20 29.82 1010 10 16 0.00 0.00
11:52 am 11:52 Cloudy with Rain 74 23.3 72 22.2 94 94 S 13 20 29.82 1010 6 10 0.00 0.03
11:57 am 11:57 Cloudy with Light Rain 73 23 73 23 100 100 S 12 19 29.80 1009 2 3 0.01 0.25
12:12 pm 12:12 Mostly Cloudy 77 25 75 24 94 94 S 13 20 29.80 1009 10 16 0.00 0.00
12:40 pm 12:40 Cloudy 79 26 73 23 84 84 S 17 28 29.77 1008 10 16 0.00 0.00
12:50 pm 12:50 Cloudy 79 26 72 22 79 79 S 18 30 29.77 1008 10 16 0.01 0.25
12:52 pm 12:52 Cloudy with Light Rain 77 25 72 22.2 85 85 S 17 28 29.79 1009 8 13 0.01 0.25
1:25 pm 13:25 Cloudy with Rain 75 24 73 23 94 94 S 12 19 29.77 1008 3 4 0.01 0.25
1:33 pm 13:33 Cloudy with Light Rain 75 24 73 23 94 94 S 9 15 29.77 1008 6 10 0.02 0.51
1:47 pm 13:47 Cloudy with Light Rain 75 24 73 23 94 94 S 8 13 29.77 1008 6 10 0.02 0.51
1:52 pm 13:52 Cloudy with Light Rain 75 23.9 74 23.3 96 96 S 7 11 29.78 1008 3 5 0.02 0.51
2:07 pm 14:07 Cloudy with Light Rain 75 24 73 23 94 94 S 8 13 29.77 1008 6 10 0.00 0.03
2:25 pm 14:25 Cloudy 77 25 73 23 89 89 S 10 17 29.74 1007 9 14 0.01 0.25
2:52 pm 14:52 Cloudy 80 26.7 76 24.4 87 87 S 12 19 29.75 1008 10 16 0.01 0.25
3:22 pm 15:22 Cloudy 79 26 73 23 84 84 S 7 11 29.71 1006 10 16 0.00 0.00
3:52 pm 15:52 Cloudy with Light Rain 77 25 75 23.9 94 94 S 6 9 29.73 1007 4 6 0.02 0.51
4:52 pm 16:52 Cloudy 80 26.7 76 24.4 87 87 SSW 7 11 29.72 1006 9 14 0.14 3.56
5:43 pm 17:43 Mostly Cloudy 79 26 73 23 84 84 S 16 26 29.68 1005 10 16 0.00 0.00
5:52 pm 17:52 Mostly Cloudy 78 25.6 73 22.8 85 85 SSW 10 17 29.72 1006 10 16 0.00 0.00
6:52 pm 18:52 Cloudy 76 24.4 73 22.8 91 91 S 13 20 29.72 1006 10 16 0.00 0.00
7:52 pm 19:52 Cloudy 74 23.3 72 22.2 94 94 SSW 10 17 29.72 1006 10 16 0.00 0.00
8:23 pm 20:23 Cloudy 73 23 72 22 94 94 S 6 9 29.74 1007 10 16 0.00 0.00
8:32 pm 20:32 Cloudy 73 23 72 22 94 94 S 7 11 29.74 1007 10 16 0.00 0.00
8:46 pm 20:46 Cloudy 73 23 72 22 94 94 SSW 8 13 29.74 1007 10 16 0.00 0.00
8:52 pm 20:52 Cloudy 74 23.3 72 22.2 94 94 SSW 9 15 29.74 1007 10 16 0.00 0.00
9:00 pm 21:00 Cloudy 73 23 73 23 100 100 SSW 8 13 29.74 1007 10 16 0.00 0.00
9:10 pm 21:10 Cloudy with Thunderstorms 73 23 73 23 100 100 SSW 7 11 29.74 1007 10 16 0.00 0.00
9:24 pm 21:24 Cloudy with Strong Thunderstorms 72 22 70 21 94 94 NW 17 28 29.77 1008 4 6 0.00 0.00
9:36 pm 21:36 Cloudy with Strong Thunderstorms 70 21 70 21 100 100 WNW 6 9 29.77 1008 4 6 0.00 0.00
9:52 pm 21:52 Cloudy with Strong Thunderstorms 70 21.1 70 21.1 100 100 Calm 29.76 1008 4 6 0.87 22.10
10:01 pm 22:01 Cloudy with Thunderstorms 70 21 70 21 100 100 Calm 29.77 1008 5 8 0.03 0.76
10:16 pm 22:16 Cloudy with Light Rain 70 21 70 21 100 100 S 3 6 29.77 1008 6 10 0.00 0.00
10:52 pm 22:52 Cloudy 71 21.7 70 21.1 96 96 SSW 5 7 29.74 1007 10 16 0.05 1.27
11:37 pm 23:37 Mostly Cloudy 72 22 70 21 94 94 SW 8 13 29.74 1007 10 16 0.00 0.00
11:52 pm 23:52 Mostly Cloudy 71 21.7 70 21.1 96 96 SW 7 11 29.75 1007 10 16 0.00 0.00

Powered by AerisWeather